Zurück zum Katalog

STARLINK-34359

AktivKommunikationVLEO
NORAD 64280·PAYLOAD·🇺🇸 United States

Gestartet Jun 4, 2025 von Vandenberg Space Force Base

Loading…

Nächste Überflüge (nächste 24 Stunden)

TLE

AktuellSource: CelesTrak SupGP

Epoche: Sep 15, 2026, 03:37 UTC

1 64280C 25120AA  26258.15118056  .00038122  00000+0  11263-2 0  2588
2 64280  53.1587 314.6996 0001170  92.6047 179.5725 15.34371987    11

Verfolge STARLINK-34359 in Echtzeit mit AllMySat

Download on the App Store